Simultaneous Nadir Overpasses (SNOs) Predictions

Prediction of SNOs between AQUA and LANDSAT-8 Satellite Orbit:

Table of predicted SNOs for the next 14.0 days since TLE Epoch: 6/14/2024
Index Date (AQUA) Time (AQUA) Lat,Lon (AQUA) SZA (AQUA ) Date (LANDSAT-8) Time (LANDSAT-8) Lat,Lon (LANDSAT-8) SZA (LANDSAT-8 ) Distance(km) Time Diff (sec)
1 06/25/2024 15:18:27 -73.15, 134.42 130.27 06/25/2024 15:17:21 -73.12, 131.84 130.34 83.45 66
2 06/25/2024 16:07:51 73.22, -58.07 49.80 06/25/2024 16:06:44 73.23, -60.28 49.78 71.12 67
3 06/25/2024 16:57:17 -73.48, 109.05 129.95 06/25/2024 16:56:07 -73.49, 107.88 129.96 36.95 70
4 06/25/2024 17:46:41 73.55, -83.44 50.12 06/25/2024 17:45:31 73.55, -84.33 50.11 28.04 70
5 06/25/2024 18:36:06 -73.75, 83.77 129.69 06/25/2024 18:34:55 -73.75, 83.74 129.69 1.22 71
6 06/25/2024 19:25:29 73.77,-108.61 50.34 06/25/2024 19:24:20 73.77,-108.59 50.33 1.02 69
7 06/25/2024 20:14:49 -73.77, 59.06 129.67 06/25/2024 20:13:47 -73.76, 59.03 129.68 1.33 62
8 06/25/2024 21:04:12 73.79,-133.33 50.36 06/25/2024 21:03:12 73.77,-133.30 50.34 1.88 60
9 06/25/2024 21:53:33 -73.78, 34.35 129.65 06/25/2024 21:52:40 -73.77, 34.32 129.67 1.95 53
10 06/25/2024 22:42:56 73.80,-158.04 50.37 06/25/2024 22:42:05 73.78,-158.01 50.35 2.81 51
11 06/25/2024 23:32:17 -73.79, 9.64 129.64 06/25/2024 23:31:33 -73.77, 9.61 129.66 2.75 44
12 06/26/2024 00:21:39 73.76, 177.36 50.34 06/26/2024 00:20:58 73.78, 177.28 50.35 3.34 41
13 06/26/2024 01:11:01 -73.81, -15.07 129.62 06/26/2024 01:10:25 -73.83, -14.98 129.60 3.54 36
14 06/26/2024 02:00:23 73.78, 152.65 50.35 06/26/2024 01:59:51 73.79, 152.57 50.36 2.71 32
15 06/26/2024 02:49:45 -73.82, -39.79 129.61 06/26/2024 02:49:18 -73.83, -39.69 129.59 3.13 27
16 06/26/2024 03:39:07 73.79, 127.94 50.37 06/26/2024 03:38:44 73.79, 127.86 50.37 2.32 23
17 06/26/2024 04:28:29 -73.84, -64.50 129.59 06/26/2024 04:28:11 -73.84, -64.40 129.59 3.00 18
18 06/26/2024 05:17:51 73.81, 103.23 50.39 06/26/2024 05:17:37 73.80, 103.16 50.38 2.31 14
19 06/26/2024 06:07:13 -73.85, -89.21 129.57 06/26/2024 06:07:04 -73.84, -89.11 129.58 3.16 9
20 06/26/2024 06:56:35 73.82, 78.51 50.40 06/26/2024 06:56:30 73.81, 78.45 50.39 2.71 5
21 06/26/2024 07:45:57 -73.86,-113.92 129.56 06/26/2024 07:45:57 -73.85,-113.82 129.57 3.60 0
22 06/26/2024 08:35:19 73.84, 53.80 50.42 06/26/2024 08:35:23 73.81, 53.74 50.40 3.36 4
23 06/26/2024 09:24:40 -73.83,-138.52 129.59 06/26/2024 09:24:50 -73.86,-138.53 129.56 3.17 10
24 06/26/2024 10:14:03 73.85, 29.09 50.44 06/26/2024 10:14:15 73.87, 29.14 50.46 2.69 12
25 06/26/2024 11:03:24 -73.84,-163.23 129.57 06/26/2024 11:03:43 -73.86,-163.24 129.55 2.18 19
26 06/26/2024 11:52:47 73.86, 4.37 50.45 06/26/2024 11:53:08 73.87, 4.43 50.46 2.17 21
27 06/26/2024 12:42:08 -73.86, 172.05 129.56 06/26/2024 12:42:36 -73.87, 172.05 129.54 1.19 28
28 06/26/2024 13:31:31 73.88, -20.34 50.47 06/26/2024 13:32:01 73.88, -20.27 50.47 2.07 30
29 06/26/2024 14:20:52 -73.87, 147.34 129.54 06/26/2024 14:21:29 -73.87, 147.34 129.54 0.23 37
30 06/26/2024 15:10:15 73.89, -45.06 50.49 06/26/2024 15:10:54 73.88, -44.98 50.48 2.45 39
31 06/26/2024 15:59:36 -73.88, 122.63 129.52 06/26/2024 16:00:22 -73.88, 122.64 129.53 0.85 46
32 06/26/2024 16:48:59 73.91, -69.77 50.50 06/26/2024 16:49:47 73.89, -69.69 50.49 3.15 48
33 06/26/2024 17:38:20 -73.90, 97.91 129.51 06/26/2024 17:39:15 -73.88, 97.93 129.52 1.86 55
34 06/26/2024 18:27:42 73.87, -94.37 50.47 06/26/2024 18:28:40 73.90, -94.40 50.50 2.87 58
35 06/26/2024 19:17:04 -73.91, 73.20 129.49 06/26/2024 19:18:08 -73.89, 73.22 129.51 2.88 64
36 06/26/2024 20:06:26 73.89,-119.08 50.49 06/26/2024 20:07:33 73.90,-119.11 50.51 1.87 67
37 06/26/2024 20:55:49 -73.98, 48.37 129.42 06/26/2024 20:57:00 -73.95, 48.62 129.45 8.74 71
38 06/26/2024 21:45:13 74.06,-144.15 50.66 06/26/2024 21:46:24 74.01,-143.59 50.62 18.02 71
39 06/26/2024 22:34:39 -74.30, 22.93 129.10 06/26/2024 22:35:47 -74.26, 24.63 129.12 51.32 68
40 06/26/2024 23:24:04 74.43,-169.72 51.03 06/26/2024 23:25:10 74.38,-167.45 51.00 68.18 66
41 06/27/2024 00:13:29 -74.62, -2.54 128.78 06/27/2024 00:14:33 -74.62, 0.78 128.74 97.87 64



Historial Predications of SNOs between AQUA and LANDSAT-8
